Regional Weather Roundup
Issued by NWS

Home | Current Version | Previous Version | Text Only | Print | Product List | Glossary On
Versions: 1 2 3 4 5 6 7 8 9 10 11 12 13 14 15 16 17 18 19 20 21 22 23 24 25 26 27 28 29 30 31 32 33 34 35 36 37 38 39 40 41 42 43 44 45 46 47 48 49 50
000
ASUS45 KTFX 252304
RWRMT
MONTANA HOURLY WEATHER ROUNDUP
NATIONAL WEATHER SERVICE GREAT FALLS MT
404 PM MST SUN JAN 25 2015

NOTE: "FAIR" INDICATES FEW OR NO CLOUDS BELOW 12000 FEET WITH NO
SIGNIFICANT WEATHER AND/OR OBSTRUCTIONS TO VISIBILITY.

* THESE STATIONS ARE NOT UNDER NWS QUALITY CONTROL. THEY DO NOT
   REPORT WEATHER SUCH AS PRECIPITATION OR FOG.

MTZ001>007-043-260000-
WEST OF THE DIVIDE
CITY           SKY/WX    TMP DP  RH WIND       PRES   REMARKS
KALISPELL      PTCLDY    45  36  71 W3        30.15R
MISSOULA       PTCLDY    43  37  79 SE6       30.20R
BUTTE          PTCLDY    54  27  35 SW7       30.25R
MULLAN PASS    PTCLDY    43  30  60 W8        30.24R
* ANACONDA     PTCLDY    55  28  35 S11G16     N/A
* ESSEX        N/A       42  34  73 S4         N/A
* LINCOLN      N/A       55  29  37 S7G19      N/A
* LOOKOUT PASS N/A       49  34  56 N2         N/A
* POLSON       N/A       49  34  56 SE3        N/A
* RONAN APT    PTSUNNY   46  46 100 N/A        N/A
* SEELEY LAKE  N/A       53  29  40 W4G13      N/A
* THOMP F APT  PTCLDY    36  28  73 SW3        N/A
* YAAK HILL    N/A       45  43  93 N/A        N/A
$$

MTZ008-052>055-260000-
SOUTHWEST MONTANA
CITY           SKY/WX    TMP DP  RH WIND       PRES   REMARKS
BOZEMAN        CLOUDY    41  34  76 CALM      30.21S
DILLON         PTSUNNY   55  27  34 SW18      30.26R
* W YELLOWSTON CLOUDY    33  29  85 SW4G12     N/A
* THREE FORKS  CLOUDY    50  36  59 SW11G16    N/A
* BOULDER HILL N/A       51  27  39 SW6        N/A
* MONIDA PASS  N/A       27  27 100 SE17       N/A   WCI  14
* RAYNOLDS PAS N/A       29  11  47 SE27G32    N/A   WCI  14
* WHITEHALL    N/A       61  27  27 SW17G30    N/A
* WISE RIVER   N/A       54  28  37 W11G22     N/A
$$

MTZ009>010-012-014-046-048-049-054-260000-
EAST SLOPES AND CENTRAL MONTANA
CITY           SKY/WX    TMP DP  RH WIND       PRES   REMARKS
CUT BANK       PTSUNNY   54  32  43 W25       29.97R
GREAT FALLS    CLOUDY    55  30  39 SW17      30.03R
HELENA         PTCLDY    61  32  34 W10       30.16R
MALMSTROM AFB  CLOUDY    57  32  39 SW21G29   30.03S
* DEARBORN     N/A       62  28  28 S24G31     N/A
* EAST GLACIER N/A       52  29  41 SW11G26    N/A
* MONARCH      N/A       50  24  36 SW15G27    N/A
* PENDROY      N/A       53  32  45 W9         N/A
* ROGERS PASS  N/A       49  27  43 SE13G21    N/A
* SWEET GRASS  N/A       53  34  49 W20G30     N/A
$$

MTZ011-013-016-021-035-040-045-047-050-051-260000-
NORTH CENTRAL MONTANA
CITY           SKY/WX    TMP DP  RH WIND       PRES   REMARKS
HAVRE          CLOUDY    48  36  63 SW15G25   29.91R
LEWISTOWN      CLOUDY    50  30  46 W17       30.00R
* N BAR RANCH  SUNNY     55  28  35 NW28G46   29.96R
* CHESTER      N/A       50  34  54 W15G23     N/A
* DENTON       N/A       51  30  45 W25G32     N/A
* GEYSER       N/A       56  28  34 SW37G47    N/A
* JUDITH GAP   N/A       57  28  33 NW15G26    N/A
* LOMA         N/A       56  37  49 SW12G19    N/A
$$

MTZ017>020-022>027-061-062-260000-
NORTHEAST MONTANA
CITY           SKY/WX    TMP DP  RH WIND       PRES   REMARKS
GLASGOW        PTCLDY    48  37  66 W9        29.83S
GLENDIVE       PTCLDY    45  36  71 S8        29.88S
JORDAN         PTCLDY    52  37  57 W14       29.88R
SIDNEY         PTCLDY    43  30  60 S8        29.86F
WOLF POINT     PTCLDY    46  36  68 W8        29.85R
* BEAVER HILL  N/A       44  34  68 SW15       N/A
* CIRCLE       N/A       53  42  66 W7         N/A
* LINDSAY DVD  N/A       49  38  66 W16        N/A
* NAVAJO       N/A       42  34  73 W17G22     N/A
* SACO         N/A       52  39  61 W14        N/A
$$

MTZ028>042-056>058-260000-
SOUTHCENTRAL AND SOUTHEAST MONTANA
CITY           SKY/WX    TMP DP  RH WIND       PRES   REMARKS
BAKER          PTCLDY    46  36  68 W10       29.89R
BILLINGS       PTSUNNY   61  28  29 W18       30.01S
LIVINGSTON     CLOUDY    55  27  34 SW32G40   30.10R
MILES CITY     PTCLDY    52  37  57 NW7       29.90S
* LAUREL APT   PTCLDY    63  28  27 SW14G26    N/A
* ROUNDUP APT  PTCLDY    61  28  29 W16G24     N/A
* ALZADA       N/A       48  35  61 SW9        N/A
* HYSHAM       N/A       56  32  40 W4G9       N/A
* LAME DEER    N/A       52  32  47 W16G24     N/A
* REED POINT   N/A       61  30  31 W21G39     N/A
* ROSCOE HILL  N/A       59  16  18 SW6G17     N/A
$$

REGIONAL REPORTS...DAKOTAS
CITY           SKY/WX    TMP DP  RH WIND       PRES   REMARKS
WILLISTON      PTSUNNY   43  30  60 SW9       29.82F
DICKINSON      PTSUNNY   43  30  60 S10       29.85F
CROSBY         SUNNY     37  36  96 SW17G23   29.76F WCI  27
WATFORD CITY   SUNNY     41  32  70 SW3       29.81F
BISMARCK       CLOUDY    37  32  82 S5        29.92F WCI  33
GRAND FORKS    CLOUDY    27  18  69 S9        29.97R WCI  18
FARGO          CLOUDY    27  18  69 SW9       29.99S WCI  18
BUFFALO SD     PTCLDY    50  36  59 W13       29.84S
RAPID CITY     CLOUDY    46  23  40 SE7       29.95F
$$

REGIONAL REPORTS...WYOMING/IDAHO/WASHINGTON
CITY           SKY/WX    TMP DP  RH WIND       PRES   REMARKS
GILLETTE       PTCLDY    52  34  50 W13       30.02R
SHERIDAN       SUNNY     55  32  42 N3        30.01S
CODY           PTCLDY    55  25  31 W15G24    30.11S
YELLOWSTONE LA PTSUNNY   32  27  82 CALM      30.42R
SALMON         PTSUNNY   36  28  73 CALM      30.36S
MULLAN PASS    PTCLDY    43  30  60 W8        30.24S
SAND POINT     CLOUDY    46  46 100 S3        30.21R
SPOKANE        PTSUNNY   52  45  77 N7        30.19R

$$



USA.gov is the U.S. government's official web portal to all federal, state and local government web resources and services.